Theta_e
289 283 280 283 286 286 285 284 282 285 289 287 286 286 288 293 290 289 289 289 290 291 296 295 296 296 296 319 326 326 321 315 311 308 306 305 302 302 301 300 301 299 298 298
284 281 287 288 287 285 284 282 282 285 289 287 286 286 290 290 291 292 292 290 289 291 293 293 294 293 301 314 322 321 318 312 311 311 310 305 301 300 298 300 300 298 297 297
282 285 290 288 286 284 284 281 281 282 286 288 283 284 287 290 291 292 292 294 293 292 294 295 294 294 304 312 318 318 314 311 310 308 301 299 300 299 298 298 297 296 296 296
284 288 286 286 285 287 282 287 285 284 281 277 284 277 285 287 290 291 294 294 294 295 295 296 295 293 304 310 313 314 309 308 305 302 303 300 300 298 296 297 296 295 295 294
282 285 284 283 285 289 284 289 287 285 280 277 281 276 282 287 288 290 292 293 295 297 297 295 296 296 302 309 308 307 306 304 301 303 302 302 299 296 297 296 294 293 293 294
284 289 287 285 288 289 289 288 287 287 282 275 281 279 283 285 288 290 292 294 295 295 295 295 295 293 302 304 305 302 301 300 300 301 302 302 298 295 296 294 293 292 292 291
279 282 286 288 284 289 288 284 277 275 275 275 280 280 283 288 290 290 291 293 293 293 293 292 292 295 298 298 299 299 300 297 299 300 300 299 298 297 296 295 294 291 290 290
270 270 278 281 283 282 282 282 276 272 272 274 278 277 281 286 288 288 288 289 290 291 291 291 292 295 296 297 298 299 298 295 297 298 298 298 298 297 297 295 293 291 291 290
269 273 279 280 285 286 280 278 286 279 277 276 279 280 285 287 287 288 288 287 286 288 288 289 290 292 294 294 296 297 296 295 296 296 296 296 296 296 294 293 292 291 290 290
273 267 277 279 282 284 283 286 277 278 271 270 274 275 276 283 284 286 287 287 288 287 288 289 289 290 291 291 292 293 295 294 294 294 294 294 294 294 293 292 291 290 289 290
275 272 272 277 276 274 276 275 279 280 278 273 272 276 284 284 285 284 287 288 289 287 287 288 288 290 290 290 291 291 292 292 292 293 292 292 292 292 292 291 290 290 289 289
275 268 266 270 277 277 279 274 275 267 268 272 275 274 289 287 285 287 286 287 290 290 286 288 288 289 289 289 290 290 291 291 292 292 292 292 292 291 290 289 289 289 288 288
272 265 262 263 268 275 272 273 274 274 273 269 269 274 288 284 284 286 287 288 290 291 287 286 287 288 289 289 289 289 290 290 290 290 291 291 289 289 289 288 288 288 287 287
278 270 266 262 265 269 267 271 272 272 266 268 269 272 280 279 279 282 283 289 290 291 291 287 287 287 288 289 288 289 289 289 289 289 289 289 289 289 289 288 288 288 287 286
270 260 267 268 270 270 270 271 271 270 271 267 270 272 277 278 279 282 284 286 286 286 288 290 292 289 289 289 288 289 289 289 289 289 289 289 289 289 288 288 288 287 287 286
274 265 265 265 269 270 268 270 271 272 272 273 275 275 279 278 281 280 280 281 282 283 284 285 287 290 289 289 290 290 290 290 290 290 290 289 289 288 288 287 287 286 286 286
270 263 260 259 266 261 257 265 270 271 274 274 271 275 277 276 276 278 279 280 281 282 283 284 285 287 289 289 291 289 290 291 290 289 289 289 289 288 287 287 287 286 286 286
263 264 266 259 255 251 266 273 272 274 275 276 275 275 275 276 277 280 282 281 281 282 283 284 285 286 287 290 290 291 290 290 289 288 289 289 288 287 286 287 286 286 286 285
273 268 257 257 252 264 268 271 271 271 270 276 275 275 275 276 275 278 283 283 283 282 284 284 285 286 286 287 289 289 288 287 287 286 286 286 287 286 286 286 286 286 285 284
269 264 267 251 256 255 265 272 275 274 266 275 276 275 274 274 270 273 280 282 283 283 283 284 285 285 285 286 287 287 287 287 287 287 287 288 287 287 287 287 286 284 285 284
254 251 256 255 250 257 269 273 274 262 267 275 275 276 276 273 275 277 279 281 282 282 283 284 284 284 284 285 285 286 286 286 288 287 287 286 287 288 287 286 285 285 284 283
261 256 252 248 247 254 271 271 268 273 275 276 276 276 275 276 277 277 278 278 281 281 281 283 282 283 284 284 283 284 285 287 286 286 287 288 288 287 286 286 284 284 283 282
263 267 262 263 262 273 274 274 277 277 276 276 276 276 276 275 275 276 277 277 279 280 281 282 282 282 283 283 282 282 285 284 286 287 289 287 287 287 286 286 284 282 282 281
269 272 267 269 272 273 275 277 277 277 277 278 278 277 276 274 276 277 277 278 278 279 280 280 281 281 282 284 281 281 283 283 285 286 287 287 286 285 285 285 285 284 282 280
271 270 268 269 273 274 275 276 277 277 278 278 278 277 277 277 277 278 278 278 278 279 279 280 280 281 281 282 281 278 280 282 284 286 286 286 286 286 285 284 284 283 284 284
273 272 269 268 274 274 274 277 278 277 277 278 277 277 278 277 277 278 277 278 278 277 278 278 279 277 279 279 279 278 277 279 282 283 285 285 285 285 285 284 282 286 285 285
Wind_Speed
4 5 4 8 7 9 6 6 9 4 5 4 8 14 14 16 9 9 9 10 9 11 11 8 8 8 8 7 12 14 14 13 12 9 9 5 7 5 4 3 9 7 6 6
6 4 4 8 7 8 9 13 15 9 7 5 9 20 14 12 14 14 14 10 11 7 8 10 9 8 9 11 13 14 15 16 12 10 8 5 7 5 2 3 4 7 6 6
3 7 7 6 7 11 12 9 8 12 7 8 3 24 15 11 12 11 13 14 11 14 14 11 10 12 10 13 15 15 16 17 13 13 10 9 8 6 3 3 2 4 7 6
5 3 8 8 4 4 9 5 8 10 2 5 2 16 8 2 14 11 15 15 17 16 15 14 11 10 13 13 11 14 15 16 13 16 12 20 12 10 4 5 3 6 6 6
7 9 8 10 8 2 6 8 5 3 5 3 9 3 6 2 10 9 10 14 16 19 19 16 16 17 14 12 13 12 14 14 15 15 14 14 13 5 7 7 8 6 5 6
8 6 3 4 8 6 5 6 10 4 4 6 16 10 24 8 9 7 7 12 12 13 12 12 9 8 10 9 11 12 15 13 15 13 15 15 16 13 12 9 8 6 4 4
8 7 4 12 13 6 8 5 5 4 4 8 2 10 22 8 14 11 14 16 15 8 9 9 10 11 12 14 13 12 15 14 14 14 14 13 15 14 16 14 10 10 6 3
5 9 8 20 6 6 12 3 4 8 4 6 3 7 6 7 15 17 14 16 12 13 8 7 7 9 13 14 15 15 14 12 13 14 12 11 13 10 8 9 10 6 6 6
6 6 25 13 10 6 5 5 4 6 9 8 6 7 3 17 22 23 23 22 20 14 9 7 1 2 5 10 13 14 14 12 12 12 11 10 10 12 10 11 9 6 6 6
5 13 8 9 14 8 2 10 7 3 4 5 4 4 3 14 19 22 22 22 23 17 11 7 5 5 5 5 6 8 10 13 10 11 9 9 10 10 12 10 10 9 7 7
5 6 11 10 6 16 15 6 6 6 6 5 3 2 4 7 13 18 21 17 19 19 13 9 6 6 6 6 5 6 8 11 10 9 9 11 10 10 10 10 9 9 8 8
3 4 6 14 18 4 4 8 4 4 9 8 10 9 5 10 12 12 18 17 20 17 11 9 7 5 4 4 5 6 6 8 8 9 10 10 10 10 11 10 9 9 9 7
5 4 7 10 8 7 5 11 11 11 3 12 9 3 7 15 18 16 16 12 17 17 13 8 9 7 2 3 4 5 5 6 7 8 10 10 10 10 10 10 9 8 9 7
6 3 5 8 15 12 21 20 13 6 5 10 12 21 14 20 22 18 18 14 8 16 12 8 7 7 6 4 2 5 5 5 6 7 8 10 10 10 9 9 10 9 8 8
4 6 10 11 13 18 22 21 21 14 17 9 14 18 12 17 18 16 15 19 17 18 19 17 15 8 6 3 2 2 4 5 6 6 7 7 7 8 9 9 8 8 8 7
3 8 5 15 16 17 21 19 18 20 22 15 13 13 13 10 10 17 18 18 17 18 16 16 18 15 8 6 6 5 6 6 7 8 8 7 8 8 8 8 8 8 7 7
4 3 1 7 5 4 7 9 13 10 4 3 5 7 10 12 15 10 10 15 18 16 15 15 16 15 12 5 5 8 8 7 8 7 7 7 8 9 8 8 9 8 8 6
5 4 3 5 5 2 9 10 7 1 2 2 5 9 11 9 13 4 5 6 10 19 16 16 14 14 14 7 5 3 6 8 8 7 8 8 9 9 8 9 9 7 7 7
12 3 3 3 4 5 7 6 4 10 13 8 4 8 11 7 8 5 5 3 8 5 11 11 11 12 11 12 5 6 6 7 6 7 8 6 7 8 8 10 9 6 6 6
5 4 3 3 3 6 7 9 7 5 7 8 8 7 8 7 9 10 10 10 8 7 7 11 13 13 13 11 6 5 6 8 10 9 9 10 12 10 10 9 8 4 5 5
3 4 6 6 5 10 13 14 1 3 10 4 5 12 11 9 8 14 13 10 8 5 10 10 10 10 12 11 5 5 5 10 8 5 8 6 6 9 9 8 5 7 6 5
7 4 5 3 2 10 9 5 6 10 5 11 12 13 11 13 10 9 11 9 10 8 8 10 10 11 12 8 6 5 8 6 5 7 7 11 10 9 8 9 6 7 8 7
7 9 6 11 9 10 8 11 13 14 15 18 12 13 10 11 9 11 9 10 9 10 10 7 10 12 11 7 4 8 8 5 7 10 13 10 10 10 10 11 9 5 6 6
7 7 8 11 16 21 18 16 13 14 15 17 14 13 10 11 12 13 9 8 9 9 10 7 8 12 15 12 4 7 9 5 7 11 12 14 13 12 10 7 7 8 8 7
8 6 8 11 19 17 20 14 15 14 13 13 13 13 14 12 15 13 15 12 8 9 8 6 8 11 14 14 12 5 7 6 8 10 9 10 11 13 13 10 10 9 8 10
7 17 11 14 22 13 20 18 13 14 16 16 13 15 13 10 13 13 12 12 10 7 7 6 7 7 12 12 13 8 6 6 9 9 8 8 8 10 10 12 8 11 7 12
Wind_Direction
349 48 294 266 268 306 324 282 267 315 1 302 258 270 257 273 273 265 260 254 247 236 245 228 221 208 196 200 182 176 160 157 142 137 132 135 138 131 124 144 133 114 116 116
14 280 307 299 270 269 287 290 289 265 252 227 273 271 260 261 259 242 248 239 239 245 237 234 215 193 199 190 186 177 170 163 162 154 155 134 140 120 87 93 115 118 122 122
267 262 354 18 341 320 292 268 277 260 280 241 305 282 259 242 244 240 241 239 232 228 238 238 214 199 187 190 188 177 172 168 160 147 123 103 89 94 110 141 151 121 126 121
276 291 328 316 301 284 291 296 283 295 294 258 171 283 231 252 252 227 245 233 233 234 237 231 207 196 195 197 179 176 167 163 157 154 151 157 158 161 196 145 136 131 119 121
285 317 323 315 269 165 238 288 242 320 301 6 233 281 279 128 256 253 251 244 236 234 228 226 211 200 192 172 176 167 163 160 157 164 164 157 153 130 135 126 136 125 121 126
266 253 315 254 299 247 319 335 288 178 173 231 243 198 277 252 259 252 248 260 249 244 241 237 221 171 171 162 165 166 164 163 162 160 161 162 152 144 142 140 151 141 127 128
323 320 299 24 337 8 33 317 295 241 208 241 263 180 249 305 327 323 317 309 299 273 240 221 190 182 167 169 163 164 167 165 162 158 161 161 154 153 160 160 155 148 144 142
342 337 17 344 345 296 296 268 281 312 316 293 26 214 235 12 11 0 349 324 317 322 294 256 230 189 172 169 167 165 164 155 156 157 156 153 149 143 160 160 139 156 146 143
319 263 329 330 326 331 330 284 289 279 248 257 208 260 303 12 15 2 2 3 339 334 332 313 11 143 164 163 166 160 155 154 153 150 140 141 145 141 150 145 127 144 127 137
290 295 264 305 319 291 304 334 308 239 276 264 286 299 3 14 4 359 358 357 352 338 340 359 40 59 68 94 107 122 144 151 144 136 141 140 141 138 134 143 137 142 131 129
274 243 303 321 335 317 322 343 307 304 262 289 271 246 254 48 16 4 347 347 351 348 337 339 10 24 46 61 87 105 121 129 129 129 127 131 129 133 136 130 137 136 129 137
278 259 283 305 294 24 346 40 39 28 323 296 279 282 63 41 7 350 338 346 349 351 342 340 348 37 57 78 101 114 113 121 125 127 127 126 130 135 127 128 141 133 139 141
305 311 320 328 346 25 0 324 330 317 308 277 328 296 28 4 7 341 334 352 348 340 353 354 347 339 13 98 90 92 99 114 121 124 130 135 140 132 137 140 135 138 141 143
303 272 207 269 273 279 294 289 304 269 283 306 275 292 352 358 345 344 350 333 356 338 343 347 343 324 327 330 153 143 129 130 131 130 138 142 145 145 143 141 143 145 148 145
113 238 262 258 268 278 273 283 297 284 277 266 292 299 357 353 345 12 16 15 16 9 358 345 326 310 287 258 249 139 121 131 135 130 140 151 140 135 137 142 144 141 144 147
189 273 295 288 268 260 280 284 285 269 271 259 288 300 9 326 348 11 6 10 9 360 353 344 344 319 285 250 200 180 168 164 155 158 159 144 142 143 147 143 148 149 152 153
236 211 292 266 324 336 327 237 253 282 285 327 303 345 310 331 345 351 4 2 352 345 344 346 344 342 314 269 249 192 179 155 167 160 150 154 151 154 156 150 153 163 163 148
216 150 233 266 15 3 241 293 259 175 179 212 293 300 317 310 323 338 325 334 356 340 335 340 340 333 335 294 247 205 169 173 173 166 163 160 164 160 158 161 168 161 160 164
198 161 260 186 199 304 289 278 270 296 300 191 220 293 314 289 306 303 280 298 313 326 322 325 316 323 326 313 252 206 191 173 161 179 162 156 157 162 166 175 171 162 154 175
83 46 213 30 235 248 240 273 250 282 270 198 226 304 304 318 317 306 323 324 299 306 311 318 328 329 328 328 294 213 208 188 194 178 189 177 163 169 178 178 180 142 168 174
336 342 190 241 230 281 251 259 261 262 280 208 278 321 294 282 262 292 299 298 297 286 309 315 321 321 310 309 314 254 227 230 217 161 132 150 184 174 183 174 171 165 160 148
192 197 218 92 63 284 226 274 211 263 295 306 299 289 274 275 274 270 282 292 297 293 297 309 310 307 306 301 314 282 258 257 146 143 163 183 189 187 154 179 164 166 157 167
257 193 202 186 221 257 240 269 275 284 284 289 288 270 264 274 264 262 257 276 278 277 288 284 293 304 303 299 256 287 273 212 186 178 181 190 181 178 163 177 172 162 162 178
238 203 225 261 257 261 274 277 273 277 272 278 274 272 267 261 273 276 261 260 264 277 281 287 292 302 306 308 222 245 283 241 197 202 201 184 185 177 164 179 174 182 184 186
224 162 227 253 265 281 270 258 266 273 271 269 269 260 264 269 278 274 290 286 262 262 270 250 277 292 293 304 308 245 269 248 222 221 213 202 188 187 168 184 183 192 201 188
192 249 248 253 266 253 273 282 276 273 278 277 270 278 270 254 266 279 279 285 290 263 265 271 270 270 289 300 304 312 280 240 223 221 216 197 197 191 187 174 173 208 191 190